EW8108 Weather Reports


time (UTC)temp
F
wind
direction
speed
knots
gust
knots
rain 1hr
in
rain 24hr
in
rain mn
in
humidity
%
barometer
mb
20200218212853 52 5 0.0 4.3 0.00 0.01 0.01 89 979.1
20200218211818 53 5 0.0 0.9 0.00 0.01 0.01 90 979.0
20200218210840 54 0 0.0 5.2 0.00 0.01 0.01 89 978.8
20200218205853 55 355 0.0 5.2 0.00 0.01 0.01 89 978.8
20200218204846 56 355 0.0 5.2 0.00 0.01 0.01 89 978.6
20200218203812 57 322 0.9 5.2 0.00 0.00 0.00 89 978.5
20200218202736 58 12 0.9 4.3 0.00 0.00 0.00 90 978.3
20200218201718 58 355 0.9 4.3 0.00 0.00 0.00 90 978.1
20200218200708 59 351 0.9 4.3 0.00 0.00 0.00 90 977.8
20200218195636 59 349 0.0 4.3 0.00 0.00 0.00 90 977.8
20200218194614 59 346 0.9 4.3 0.00 0.00 0.00 90 977.7
20200218193632 59 12 0.0 3.5 0.00 0.00 0.00 90 977.8
20200218192648 59 344 0.0 5.2 0.00 0.00 0.00 90 977.8
20200218191654 59 327 0.0 5.2 0.00 0.00 0.00 90 977.9
20200218190714 60 355 0.0 4.3 0.00 0.00 0.00 90 978.0
20200218185726 60 355 0.9 4.3 0.00 0.00 0.00 89 977.9
20200218184721 60 355 0.0 4.3 0.00 0.00 0.00 88 977.9
20200218183736 61 355 0.9 4.3 0.00 0.00 0.00 88 977.9
20200218182703 61 350 0.0 2.6 0.00 0.00 0.00 87 978.2
20200218181647 62 350 0.9 4.3 0.00 0.00 0.00 86 978.3
20200218180631 64 348 0.9 4.3 0.00 0.00 0.00 85 978.2
20200218175654 66 350 0.9 4.3 0.00 0.00 0.00 84 978.1
20200218174700 69 224 0.0 0.0 0.00 0.00 0.00 90 978.0
20200218173719 69 224 0.0 0.0 0.00 0.00 0.00 90 977.8
20200218172707 69 224 0.0 0.0 0.00 0.00 0.00 90 977.8
20200218171710 69 224 0.0 0.0 0.00 0.00 0.00 90 977.7
20200218170640 69 224 0.0 0.0 0.00 0.00 0.00 90 977.5
20200218165654 69 224 0.0 0.0 0.00 0.00 0.00 91 977.5
20200218164625 69 224 0.0 0.0 0.00 0.00 0.00 91 977.6
20200218163636 68 224 0.0 0.0 0.00 0.00 0.00 91 977.4
20200218162639 68 224 0.0 0.0 0.00 0.00 0.00 91 977.6
20200218161628 68 224 0.0 0.0 0.00 0.00 0.00 91 977.6
20200218160637 68 224 0.0 0.0 0.00 0.00 0.00 91 977.4
20200218154447 67 224 0.0 0.0 0.00 0.00 0.00 91 977.3
20200218153423 67 224 0.0 0.0 0.00 0.00 0.00 91 977.0
20200218152407 67 224 0.0 0.0 0.00 0.00 0.00 91 976.6
20200218151418 67 224 0.0 0.0 0.00 0.00 0.00 91 976.6
20200218150439 67 224 0.0 0.0 0.00 0.00 0.00 91 976.4
20200218144332 66 224 0.0 0.0 0.00 0.00 0.00 91 976.0
20200218143332 66 224 0.0 0.0 0.00 0.00 0.00 91 975.9
20200218142354 66 224 0.0 0.0 0.00 0.00 0.00 91 975.7
20200218141327 66 224 0.0 0.0 0.00 0.00 0.00 91 975.5
20200218140322 66 224 0.0 0.0 0.00 0.00 0.00 91 975.4
20200218135303 66 224 0.0 0.0 0.00 0.00 0.00 91 975.4
20200218134316 66 224 0.0 0.0 0.00 0.00 0.00 91 975.4
20200218133314 66 224 0.0 0.0 0.00 0.00 0.00 90 975.1
20200218132314 66 224 0.0 0.0 0.00 0.00 0.00 90 974.8
20200218131312 66 224 0.0 0.0 0.00 0.00 0.00 90 974.6
20200218130327 66 224 0.0 0.0 0.00 0.00 0.00 90 974.6
20200218125337 66 224 0.0 0.0 0.00 0.00 0.00 90 974.5
20200218124356 66 224 0.0 0.0 0.00 0.00 0.00 90 974.3
20200218123353 66 224 0.0 0.0 0.00 0.00 0.00 90 974.1
20200218122406 66 224 0.0 0.0 0.00 0.00 0.00 90 973.9
20200218121407 66 224 0.0 0.0 0.00 0.00 0.00 90 973.9
20200218120359 66 224 0.0 0.0 0.00 0.00 0.00 90 974.0
20200218115404 66 224 0.0 0.0 0.00 0.00 0.00 90 973.8
20200218114408 66 224 0.0 0.0 0.00 0.00 0.00 90 973.7
20200218113404 66 224 0.0 0.0 0.00 0.00 0.00 90 973.7
20200218112341 66 224 0.0 0.9 0.00 0.00 0.00 90 973.6
20200218111329 66 224 0.0 0.0 0.00 0.00 0.00 90 973.4
20200218110339 66 232 0.0 0.0 0.00 0.00 0.00 90 973.2
20200218105324 66 208 0.0 0.0 0.00 0.00 0.00 90 973.2
20200218104340 66 207 0.0 0.0 0.00 0.00 0.00 90 973.1
20200218103305 66 209 0.0 0.0 0.00 0.00 0.00 90 972.8
20200218102245 66 216 0.0 3.5 0.00 0.00 0.00 90 972.5
20200218101250 66 214 0.0 0.0 0.00 0.00 0.00 90 972.4
20200218100303 66 215 0.0 0.0 0.00 0.00 0.00 90 972.3
20200218095309 66 213 0.0 0.0 0.00 0.00 0.00 90 972.3
20200218094236 66 208 0.0 0.0 0.00 0.01 0.00 90 972.1
20200218093225 66 206 0.0 0.0 0.00 0.01 0.00 90 972.0
20200218092239 66 207 0.0 3.5 0.00 0.01 0.00 90 972.2
20200218091304 66 200 0.0 2.6 0.00 0.01 0.00 90 972.1
20200218090322 66 200 0.0 3.5 0.00 0.01 0.00 90 972.1
20200218085333 66 217 0.0 4.3 0.00 0.01 0.00 90 972.0
20200218084341 66 228 0.0 2.6 0.00 0.01 0.00 90 971.9
20200218083352 66 216 0.0 3.5 0.00 0.01 0.00 90 972.2
20200218082350 66 208 0.0 2.6 0.00 0.01 0.00 90 971.9
20200218081359 66 181 0.0 2.6 0.00 0.01 0.00 90 972.3
20200218080336 66 186 0.0 0.9 0.00 0.01 0.00 89 972.2
20200218075354 67 209 0.0 6.1 0.00 0.01 0.00 89 972.3
20200218074402 67 221 0.0 0.0 0.00 0.01 0.00 89 972.3
20200218073357 67 172 0.0 5.2 0.00 0.01 0.00 89 972.3
20200218072418 67 216 0.0 3.5 0.00 0.01 0.00 89 972.4
20200218071417 67 211 0.0 2.6 0.00 0.01 0.00 89 972.5
20200218070430 67 221 0.0 3.5 0.00 0.01 0.00 89 972.7
20200218065425 67 219 0.0 5.2 0.00 0.01 0.00 90 972.7
20200218064352 67 237 0.0 1.7 0.00 0.01 0.00 90 972.8
20200218063348 67 173 0.0 6.1 0.00 0.01 0.00 90 972.8
20200218062354 66 214 0.9 6.1 0.00 0.01 0.00 90 972.7
20200218061358 66 200 0.0 6.1 0.00 0.01 0.00 90 972.9
20200218060410 66 221 0.0 3.5 0.00 0.01 0.00 90 972.8
20200218055337 66 219 0.0 1.7 0.00 0.01 0.01 90 972.9
20200218054330 66 217 0.0 2.6 0.00 0.01 0.01 90 972.8
20200218053319 65 217 0.0 0.0 0.00 0.01 0.01 90 972.7
20200218052331 65 217 0.0 0.0 0.00 0.01 0.01 90 972.6
20200218051330 65 217 0.0 0.0 0.00 0.01 0.01 90 972.6
20200218050334 66 217 0.0 0.0 0.00 0.01 0.01 90 972.4
20200218045307 66 217 0.0 0.0 0.00 0.01 0.01 89 972.5
20200218044319 66 217 0.0 0.0 0.00 0.01 0.01 89 972.4
20200218043303 66 217 0.0 0.9 0.00 0.01 0.01 89 972.3
20200218042301 67 217 0.0 3.5 0.00 0.01 0.01 89 972.2
20200218041316 67 217 0.0 1.7 0.00 0.01 0.01 89 972.2
20200218040332 67 224 0.0 0.0 0.00 0.01 0.01 89 972.1
20200218035329 67 227 0.0 0.0 0.00 0.01 0.01 89 972.0
20200218034257 67 227 0.0 1.7 0.00 0.01 0.01 89 971.9
20200218033246 67 227 0.0 1.7 0.00 0.01 0.01 89 971.7
20200218032232 67 228 0.0 0.9 0.00 0.01 0.01 89 971.6
20200218031222 67 228 0.0 0.9 0.00 0.01 0.01 89 971.6
20200218030145 66 228 0.0 0.0 0.00 0.01 0.01 89 971.5
20200218025154 66 229 0.0 0.0 0.00 0.01 0.01 88 971.4
20200218024210 66 229 0.0 0.0 0.00 0.01 0.01 88 971.4
20200218023154 66 229 0.0 0.0 0.00 0.01 0.01 88 971.4
20200218022120 66 229 0.0 0.0 0.00 0.01 0.01 88 971.3
20200218021056 67 229 0.0 0.0 0.00 0.01 0.01 87 971.2
20200218020033 67 229 0.0 0.0 0.00 0.01 0.01 87 971.1
20200218015053 67 229 0.0 0.0 0.00 0.01 0.01 86 970.9
20200218014056 68 229 0.0 0.0 0.00 0.01 0.01 86 970.8
20200218013117 68 229 0.0 0.0 0.00 0.01 0.01 86 970.7
20200218012126 69 229 0.0 0.0 0.00 0.01 0.01 84 970.5
20200218011133 69 229 0.0 0.0 0.00 0.01 0.01 84 970.5
20200218010111 70 229 0.0 0.0 0.00 0.01 0.01 83 970.5
20200218005101 71 229 0.0 0.0 0.00 0.01 0.01 81 970.3
20200218004026 71 229 0.0 0.0 0.00 0.01 0.01 80 970.4
20200218003030 72 229 0.0 0.0 0.00 0.01 0.01 79 970.3
20200218002029 73 229 0.0 2.6 0.00 0.01 0.01 78 970.2
20200218001036 73 232 0.0 0.0 0.00 0.01 0.01 76 970.2
20200218000039 74 232 0.0 0.0 0.00 0.01 0.01 75 970.1
20200217235059 75 232 0.0 2.6 0.00 0.01 0.01 75 970.0
20200217234048 75 221 0.0 1.7 0.00 0.01 0.01 74 969.9
20200217233058 75 237 0.0 4.3 0.00 0.01 0.01 74 969.9
20200217232054 76 250 0.0 4.3 0.00 0.01 0.01 73 969.8
20200217231105 76 211 0.0 4.3 0.00 0.01 0.01 73 969.7
20200217230106 76 189 0.0 5.2 0.00 0.01 0.01 72 969.8
20200217225052 76 210 0.0 5.2 0.00 0.01 0.01 72 969.8
20200217224057 77 244 0.9 4.3 0.00 0.01 0.01 70 969.9
20200217223021 77 198 0.9 6.1 0.00 0.01 0.01 69 969.8
20200217222027 78 248 0.0 5.2 0.00 0.01 0.01 69 969.8
20200217221004 78 246 0.9 6.1 0.00 0.01 0.01 68 969.7
20200217215932 78 268 0.9 6.1 0.00 0.01 0.01 67 969.8
20200217214946 79 230 1.7 6.1 0.00 0.01 0.01 66 969.8
20200217214009 79 267 0.9 7.0 0.00 0.01 0.01 67 969.8